User: anonymous   Login
Location: Unspecified
(0.0000°N, 0.0000°E)
Time: 11:47:37
(UTC+02:00)
Language:

Cosmos 1437 - Orbit

View from above orbital plane
View from above orbital plane
View from above satellite
View from above satellite

Ground track
Ground track

The orbit data is extracted from the following two-line orbital elements,

1 13770U 83003A   15146.07628314  .00006470  00000-0  16363-3 0  9999
2 13770 081.1622 345.7492 0008867 022.1029 098.3086 15.39560217770163
Epoch (UTC): 26 May 2015 01:49:50
Eccentricity: 0.0008867
inclination: 81.1622°
perigee height: 441 km
apogee height: 453 km
right ascension of ascending node: 345.7492°
argument of perigee: 22.1029°
revolutions per day: 15.39560217
mean anomaly at epoch: 98.3086°
orbit number at epoch: 77016

The dashed part of the orbit path shows where the satellite is in the earth's shadow,  

DLR